Clearfield, PA

2:39 PM EST on December 11, 2017 (GMT -0500)
Clearfield-Lawrence

Weather History for KFIG - April, 2014

Change the Weather History Date:

Tuesday, April 29, 2014

  Actual Average (KDUJ) Record (KDUJ)
Temperature  
Mean Temperature 45 °F -  
Max Temperature 48 °F 61 °F 80 °F (1970)
Min Temperature 42 °F 40 °F 27 °F (1977)
Degree Days  
Heating Degree Days 20    
Moisture  
Dew Point 43 °F    
Average Humidity 92    
Maximum Humidity 97    
Minimum Humidity 86    
Precipitation  
Precipitation 0.75 in - - ()
Sea Level Pressure  
Sea Level Pressure 30.08 in    
Wind  
Wind Speed 8 mph (ESE)    
Max Wind Speed 12 mph    
Max Gust Speed 28 mph    
Visibility 7 miles    
Events Rain    
Averages and records for this station are not official NWS values.
T = Trace of Precipitation, MM = Missing Value Source: NWS Daily Summary

Daily Weather History Graph

Daily Weather History Graph

Search for Another Location

Airport or City:

Trip Planner

Search our weather history database for the weather conditions in past years. The results will help you decide how hot, cold, wet, or windy it might be!

Date:

Astronomy

Apr. 29, 2014 Rise Set
Actual Time 6:14 AM EDT 8:08 PM EDT
Civil Twilight 5:44 AM EDT 8:38 PM EDT
Nautical Twilight 5:08 AM EDT 9:14 PM EDT
Astronomical Twilight 4:29 AM EDT 9:53 PM EDT
Moon 6:31 AM EDT (4/29) 8:46 PM EDT (4/29)
Length of Visible Light 14h 53m
Length of Day
13h 54m
New Moon, 0% of the Moon is Illuminated
Apr 29
New Moon
May 6
First Quarter
May 14
Full
May 21
Last Quarter
May 28
New

Hourly Weather History & Observations

Time (EDT) Temp. Windchill Dew Point Humidity Pressure Visibility Wind Dir Wind Speed Gust Speed Precip Events Conditions
12:17 AM 46.9 °F - 44.1 °F 90% 29.98 in 10.0 mi Variable 5.8 mph - N/A   Overcast
12:35 AM 46.9 °F - 44.1 °F 90% 29.99 in 10.0 mi Variable 4.6 mph - N/A   Overcast
12:54 AM 46.9 °F - 44.1 °F 90% 29.99 in 10.0 mi Variable 5.8 mph - N/A   Overcast
1:54 AM 48.0 °F - 44.1 °F 86% 29.97 in 10.0 mi SE 6.9 mph - N/A   Overcast
2:10 AM 48.0 °F - 44.1 °F 86% 29.96 in 10.0 mi ESE 11.5 mph 18.4 mph N/A   Overcast
2:54 AM 48.0 °F - 45.0 °F 89% 29.98 in 10.0 mi SSE 5.8 mph - N/A   Overcast
3:54 AM 48.0 °F - 45.0 °F 89% 29.99 in 10.0 mi SSE 9.2 mph 18.4 mph N/A   Overcast
4:54 AM 48.0 °F - 45.0 °F 89% 29.99 in 10.0 mi SE 8.1 mph 19.6 mph 0.00 in Rain Light Rain
5:54 AM 48.0 °F - 45.0 °F 89% 29.99 in 10.0 mi SE 6.9 mph 18.4 mph 0.00 in   Overcast
6:54 AM 48.0 °F - 44.1 °F 86% 30.01 in 10.0 mi ESE 10.4 mph 19.6 mph 0.00 in   Overcast
7:54 AM 46.9 °F - 43.0 °F 86% 30.05 in 10.0 mi SE 10.4 mph 18.4 mph 0.00 in Rain Light Rain
8:24 AM 46.0 °F 42.5 °F 44.1 °F 93% 30.05 in 2.5 mi SE 6.9 mph - 0.06 in Rain Rain
8:26 AM 46.0 °F 41.9 °F 44.1 °F 93% 30.05 in 3.0 mi ESE 8.1 mph - 0.06 in Rain Rain
8:54 AM 46.0 °F 41.9 °F 44.1 °F 93% 30.07 in 6.0 mi SE 8.1 mph - 0.09 in Rain Light Rain
9:54 AM 45.0 °F 40.1 °F 43.0 °F 93% 30.06 in 10.0 mi SSE 9.2 mph - 0.04 in Rain Light Rain
10:13 AM 45.0 °F 40.1 °F 42.1 °F 90% 30.05 in 7.0 mi SE 9.2 mph 16.1 mph 0.01 in Rain Light Rain
10:23 AM 45.0 °F 40.1 °F 42.1 °F 90% 30.04 in 6.0 mi SE 9.2 mph 27.6 mph 0.02 in Rain Light Rain
10:54 AM 44.1 °F 38.1 °F 42.1 °F 93% 30.06 in 10.0 mi East 11.5 mph 24.2 mph 0.05 in Rain Light Rain
11:54 AM 44.1 °F 39.0 °F 41.0 °F 89% 30.07 in 6.0 mi SE 9.2 mph 18.4 mph 0.08 in Rain Light Rain
12:54 PM 44.1 °F 40.8 °F 42.1 °F 93% 30.07 in 5.0 mi Variable 5.8 mph 20.7 mph 0.07 in Rain Light Rain
1:54 PM 45.0 °F 41.2 °F 42.1 °F 90% 30.07 in 10.0 mi ESE 6.9 mph 19.6 mph 0.07 in Rain Light Rain
2:54 PM 45.0 °F 40.1 °F 42.1 °F 90% 30.09 in 3.0 mi SE 9.2 mph - 0.07 in Rain Rain
3:02 PM 45.0 °F - 42.1 °F 90% 30.08 in 2.0 mi North - - 0.02 in Rain Rain
3:13 PM 44.1 °F 39.0 °F 43.0 °F 96% 30.08 in 1.8 mi SE 9.2 mph 17.3 mph 0.05 in Rain Heavy Rain
3:15 PM 44.1 °F 39.5 °F 43.0 °F 96% 30.08 in 2.0 mi SE 8.1 mph 17.3 mph 0.06 in Rain Heavy Rain
3:22 PM 44.1 °F 39.5 °F 43.0 °F 96% 30.08 in 3.0 mi SE 8.1 mph - 0.06 in Rain Light Rain
3:29 PM 45.0 °F 41.2 °F 43.0 °F 93% 30.09 in 2.5 mi SE 6.9 mph 19.6 mph 0.08 in Rain Rain
3:51 PM 44.6 °F 40.2 °F 42.8 °F 93% 30.09 in 4.0 mi SE 8.1 mph - 0.12 in Rain Light Rain
3:54 PM 45.0 °F 40.6 °F 43.0 °F 93% 30.12 in 5.0 mi SE 8.1 mph - 0.12 in Rain Light Rain
5:54 PM 44.1 °F 39.5 °F 42.1 °F 93% 30.16 in 10.0 mi East 8.1 mph - 0.03 in Rain Light Rain
6:54 PM 44.1 °F 40.1 °F 42.1 °F 93% 30.17 in 10.0 mi Variable 6.9 mph - 0.00 in   Overcast
7:07 PM 43.0 °F 38.2 °F 42.1 °F 97% 30.15 in 8.0 mi East 8.1 mph - 0.00 in Rain Light Rain
7:43 PM 43.0 °F 37.2 °F 42.1 °F 97% 30.15 in 3.0 mi East 10.4 mph - 0.05 in Rain Rain
7:54 PM 43.0 °F 37.7 °F 42.1 °F 97% 30.19 in 5.0 mi ESE 9.2 mph - 0.06 in Rain Light Rain
8:29 PM 43.0 °F 38.2 °F 41.0 °F 93% 30.17 in 8.0 mi East 8.1 mph - 0.04 in Rain Light Rain
8:37 PM 43.0 °F 37.7 °F 42.1 °F 97% 30.17 in 7.0 mi East 9.2 mph - 0.05 in Rain Light Rain
8:44 PM 43.0 °F 37.2 °F 41.0 °F 93% 30.17 in 8.0 mi East 10.4 mph - 0.05 in Rain Light Rain
8:54 PM 43.0 °F 37.7 °F 42.1 °F 97% 30.19 in 6.0 mi East 9.2 mph - 0.06 in Rain Light Rain
9:54 PM 42.1 °F 35.7 °F 41.0 °F 96% 30.19 in 10.0 mi East 11.5 mph - 0.01 in Rain Light Rain
10:54 PM 42.1 °F 37.1 °F 41.0 °F 96% 30.18 in 10.0 mi East 8.1 mph - 0.00 in   Overcast
11:54 PM 43.0 °F 38.8 °F 39.9 °F 89% 30.19 in 10.0 mi East 6.9 mph - N/A   Overcast